Regional Weather Roundup
Issued by NWS

Home | Current Version | Previous Version | Graphics & Text | Print | Product List | Glossary On
Versions: 1 2 3 4 5 6 7 8 9 10 11 12 13 14 15 16 17 18 19 20 21 22 23 24 25 26 27 28
000
ASUS45 KSLC 151610
RWRUT

UTAH REGIONAL WEATHER ROUNDUP
NATIONAL WEATHER SERVICE SALT LAKE CITY UT
1000 AM MDT TUE APR 15 2014

UTZ001>011-023>025-151700-

NORTHERN UTAH

CITY           SKY/WX    TMP DP  RH WIND       PRES   REMARKS
HILL AFB       MOSUNNY   50  14  24 E9        30.00F
LOGAN          SUNNY     47  20  34 N5        29.98F
OGDEN          SUNNY     53  16  23 S12       29.99F
PROVO AIRPORT  PTSUNNY   46  23  39 SE10      30.05F
SALT LAKE CITY MOSUNNY   51  21  30 SE15      30.00F
VERNAL         CLOUDY    38  22  52 CALM      30.10F
WENDOVER       MOSUNNY   45  12  26 CALM      29.99F
HEBER CITY     CLOUDY    36  21  55 CALM      30.05F
WEST JORDAN    SUNNY     46  28  49 S15       30.01F

$$

UTZ012>022-026-027-151700-

SOUTHERN UTAH

CITY           SKY/WX    TMP DP  RH WIND       PRES   REMARKS
BRYCE CANYON   SUNNY     46  10  23 VRB3      30.15F
CEDAR CITY     MOSUNNY   56   7  14 SW12      30.07F
MILFORD        PTSUNNY   53   6  15 SW21      30.05F
MOAB/CYNLANDS  SUNNY     47  18  31 E7        30.12F
PRICE          MOSUNNY   43  11  27 S3        30.13F
ST GEORGE      CLOUDY    52  16  24 CALM      30.10F
KANAB            N/A     52  10  19 CALM      30.15F

$$

REGIONAL REPORTS     COLORADO/ARIZONA

CITY           SKY/WX    TMP DP  RH WIND       PRES   REMARKS
CRAIG, CO      PTSUNNY   38  19  46 SE6       30.09F WCI  33
GRAND JUNCTION SUNNY     42  19  39 SE14      30.15F
RIFLE          SUNNY     37  20  50 VRB5      30.16F WCI  33
MONTROSE       SUNNY     41  18  39 VRB5      30.17F
CORTEZ         SUNNY     43  14  31 VRB3      30.17F
PAGE, AZ       MOSUNNY   50   8  18 VRB6      30.13S
GRAND CANYON   MOSUNNY   55   2  11 VRB3      30.16F
KINGMAN        MOSUNNY   63   1   8 N3        30.03F
FLAGSTAFF      SUNNY     50   6  16 CALM      30.17F

$$

REGIONAL REPORTS    NEVADA/IDAHO/WYOMING

CITY           SKY/WX    TMP DP  RH WIND       PRES   REMARKS
LAS VEGAS, NV  PTSUNNY   66  13  12 CALM      29.97F
ELY            PTSUNNY   48  10  21 E3        30.09F
ELKO           SUNNY     48  16  27 CALM      30.01F
POCATELLO, ID  MOSUNNY   57   9  14 S24G32    29.88F
BURLEY         PTSUNNY   58  24  27 SW13      29.88F
EVANSTON, WY   MOSUNNY   41  12  30 SW13      30.03F
ROCK SPRINGS   PTSUNNY   44   6  21 W17       30.00F

$$



USA.gov is the U.S. government's official web portal to all federal, state and local government web resources and services.